FW8254 Weather Reports


time (UTC)temp
F
wind
direction
speed
knots
gust
knots
rain 1hr
in
rain 24hr
in
rain mn
in
humidity
%
barometer
mb
20260506141459 69 304 3.5 5.2 0.00 0.00 0.00 74 1011.0
20260506140958 68 300 3.5 4.3 0.00 0.00 0.00 73 1011.1
20260506140454 68 298 5.2 6.1 0.00 0.00 0.00 74 1011.1
20260506135951 68 330 2.6 5.2 0.00 0.00 0.00 74 1011.2
20260506135449 68 316 2.6 4.3 0.00 0.00 0.00 75 1011.2
20260506134944 68 349 1.7 4.3 0.00 0.00 0.00 74 1011.3
20260506134440 68 310 3.5 4.3 0.00 0.00 0.00 74 1011.2
20260506133938 67 301 4.3 4.3 0.00 0.00 0.00 75 1011.2
20260506133435 67 317 3.5 4.3 0.00 0.00 0.00 75 1011.2
20260506132931 67 318 2.6 4.3 0.00 0.00 0.00 75 1011.3
20260506132429 67 268 2.6 4.3 0.00 0.00 0.00 75 1011.3
20260506131926 67 294 2.6 4.3 0.00 0.00 0.00 75 1010.8
20260506131422 67 324 2.6 5.2 0.00 0.00 0.00 75 1011.0
20260506130920 66 335 2.6 5.2 0.00 0.00 0.00 76 1011.0
20260506130416 66 356 2.6 2.6 0.00 0.00 0.00 76 1010.8
20260506125914 66 45 0.9 1.7 0.00 0.00 0.00 76 1010.8
20260506125412 66 30 0.9 0.9 0.00 0.00 0.00 76 1011.0
20260506124910 65 359 1.7 1.7 0.00 0.00 0.00 76 1011.1
20260506124407 65 19 0.9 0.9 0.00 0.00 0.00 76 1011.1
20260506123905 65 29 0.0 0.9 0.00 0.00 0.00 77 1010.9
20260506123403 64 29 0.0 0.0 0.00 0.00 0.00 77 1011.0
20260506122900 64 31 0.0 0.9 0.00 0.00 0.00 77 1011.1
20260506122356 64 32 0.0 0.0 0.00 0.00 0.00 77 1011.1
20260506121855 64 29 0.9 1.7 0.00 0.00 0.00 77 1011.0
20260506121351 64 41 0.0 0.0 0.00 0.00 0.00 78 1010.8
20260506120848 63 41 0.0 0.0 0.00 0.00 0.00 78 1011.0
20260506120346 63 45 0.0 0.9 0.00 0.00 0.00 78 1010.9
20260506115843 63 51 0.0 0.0 0.00 0.00 0.00 78 1010.7
20260506115341 63 51 0.0 0.0 0.00 0.00 0.00 78 1010.8
20260506114839 63 51 0.0 0.0 0.00 0.00 0.00 78 1010.7
20260506114336 63 51 0.0 0.9 0.00 0.00 0.00 78 1010.5
20260506113835 63 51 0.0 0.9 0.00 0.00 0.00 78 1010.7
20260506113332 63 49 0.9 0.9 0.00 0.00 0.00 78 1010.6
20260506112829 63 45 0.0 0.0 0.00 0.00 0.00 78 1010.5
20260506112326 63 35 0.9 0.9 0.00 0.00 0.00 77 1010.3
20260506111823 63 44 0.0 0.9 0.00 0.00 0.00 77 1009.9
20260506111322 63 43 0.0 0.9 0.00 0.00 0.00 77 1009.8
20260506110819 63 84 0.9 1.7 0.00 0.00 0.00 77 1009.5
20260506110315 62 45 0.0 1.7 0.00 0.00 0.00 77 1009.6
20260506105812 63 35 0.0 0.9 0.00 0.00 0.00 77 1009.6
20260506105309 63 52 0.0 0.9 0.00 0.00 0.00 77 1009.5
20260506104807 63 60 0.0 0.9 0.00 0.00 0.00 77 1009.6
20260506104304 63 52 0.0 1.7 0.00 0.00 0.00 77 1009.9
20260506103801 62 43 0.0 0.9 0.00 0.00 0.00 77 1009.8
20260506103259 62 26 1.7 1.7 0.00 0.00 0.00 77 1009.5
20260506102756 62 31 0.0 0.9 0.00 0.00 0.00 77 1009.7
20260506102254 62 53 0.0 0.9 0.00 0.00 0.00 77 1009.5
20260506101751 62 45 0.0 0.0 0.00 0.00 0.00 78 1009.3
20260506101247 62 31 0.0 0.0 0.00 0.00 0.00 78 1009.4
20260506100745 62 51 0.0 0.9 0.00 0.00 0.00 78 1009.4
20260506100243 62 37 0.0 0.0 0.00 0.00 0.00 78 1009.6
20260506095742 62 35 0.0 1.7 0.00 0.00 0.00 78 1009.4
20260506095238 62 38 0.9 0.9 0.00 0.00 0.00 78 1009.5
20260506094734 62 50 0.0 0.0 0.00 0.00 0.00 79 1009.4
20260506094233 61 50 0.0 0.9 0.00 0.00 0.00 79 1009.6
20260506093731 61 50 0.0 0.0 0.00 0.00 0.00 79 1009.5
20260506093228 61 50 0.0 0.9 0.00 0.00 0.00 79 1009.5
20260506092726 61 50 0.0 0.9 0.00 0.00 0.00 79 1009.5
20260506092224 61 50 0.0 0.0 0.00 0.00 0.00 79 1009.8
20260506091721 61 50 0.0 0.0 0.00 0.00 0.00 79 1009.9
20260506091218 61 50 0.0 0.0 0.00 0.00 0.00 79 1010.1
20260506090716 61 50 0.0 0.0 0.00 0.00 0.00 79 1010.1
20260506090212 61 50 0.0 0.0 0.00 0.00 0.00 79 1010.3
20260506085709 61 50 0.0 0.0 0.00 0.00 0.00 78 1010.0
20260506085205 61 50 0.0 0.0 0.00 0.00 0.00 78 1010.1
20260506084703 61 50 0.0 0.0 0.00 0.00 0.00 78 1010.1
20260506084159 61 50 0.0 0.0 0.00 0.00 0.00 78 1009.9
20260506083656 61 50 0.0 0.0 0.00 0.00 0.00 77 1010.2
20260506083154 62 50 0.0 0.0 0.00 0.00 0.00 77 1010.3
20260506082651 62 50 0.0 0.0 0.00 0.00 0.00 77 1010.2
20260506082151 62 50 0.0 0.0 0.00 0.00 0.00 76 1010.5
20260506081649 62 50 0.0 0.0 0.00 0.00 0.00 76 1010.3
20260506081147 62 50 0.0 0.0 0.00 0.00 0.00 76 1010.5
20260506080644 62 50 0.0 0.0 0.00 0.00 0.00 76 1010.7
20260506080140 62 50 0.0 0.0 0.00 0.00 0.00 76 1010.6
20260506073125 62 50 0.0 0.9 0.00 0.00 0.00 75 1010.5
20260506072621 63 41 0.0 0.0 0.00 0.00 0.00 75 1010.6
20260506072119 63 41 0.0 0.0 0.00 0.00 0.00 74 1010.8
20260506071617 63 46 0.0 0.0 0.00 0.00 0.00 74 1010.5
20260506071114 63 46 0.0 0.9 0.00 0.00 0.00 74 1010.3
20260506070611 63 35 0.0 1.7 0.00 0.00 0.00 73 1010.6
20260506070108 64 35 0.0 0.0 0.00 0.00 0.00 73 1010.2
20260506062045 64 52 0.0 0.9 0.00 0.00 0.00 71 1010.1
20260506061541 64 80 1.7 1.7 0.00 0.00 0.00 71 1010.3
20260506061039 65 41 0.0 0.9 0.00 0.00 0.00 71 1010.5
20260506060537 65 57 0.9 2.6 0.00 0.00 0.00 71 1010.6
20260506051006 66 58 0.9 1.7 0.00 0.00 0.00 67 1010.7
20260506050503 66 45 0.9 1.7 0.00 0.00 0.00 67 1011.0
20260506044954 66 56 0.9 2.6 0.00 0.00 0.00 66 1010.9
20260506044452 67 64 0.9 1.7 0.00 0.00 0.00 65 1010.6
20260506043948 67 346 1.7 1.7 0.00 0.00 0.00 65 1010.6
20260506043445 67 72 1.7 1.7 0.00 0.00 0.00 65 1010.7
20260506042943 67 37 1.7 2.6 0.00 0.00 0.00 65 1010.9
20260506042443 67 52 0.9 2.6 0.00 0.00 0.00 64 1010.7
20260506041940 67 54 0.0 0.9 0.00 0.00 0.00 64 1010.8
20260506041438 67 65 1.7 1.7 0.00 0.00 0.00 64 1010.6
20260506040935 68 59 0.9 1.7 0.00 0.00 0.00 64 1010.6
20260506040432 68 59 0.0 1.7 0.00 0.00 0.00 64 1010.7
20260506035928 68 62 0.9 1.7 0.00 0.00 0.00 64 1010.9
20260506035426 68 61 0.9 1.7 0.00 0.00 0.00 64 1010.6
20260506034922 68 52 0.0 1.7 0.00 0.00 0.00 65 1010.6
20260506034420 68 59 0.0 1.7 0.00 0.00 0.00 64 1010.6
20260506033917 68 78 0.9 1.7 0.00 0.00 0.00 64 1010.5
20260506033414 69 47 0.0 1.7 0.00 0.00 0.00 64 1010.4
20260506032911 69 63 2.6 2.6 0.00 0.00 0.00 64 1010.5
20260506032408 69 63 0.9 2.6 0.00 0.00 0.00 64 1010.6
20260506031905 69 79 0.9 1.7 0.00 0.00 0.00 64 1010.5
20260506031402 69 48 0.0 2.6 0.00 0.00 0.00 63 1010.5
20260506030859 69 33 0.9 1.7 0.00 0.00 0.00 64 1010.3
20260506030357 69 91 2.6 2.6 0.00 0.00 0.00 63 1010.4
20260506025854 69 53 0.0 2.6 0.00 0.00 0.00 63 1010.4
20260506025350 70 62 0.9 1.7 0.00 0.00 0.00 63 1010.2
20260506024847 70 55 0.9 1.7 0.00 0.00 0.00 63 1010.2
20260506024344 70 50 0.9 0.9 0.00 0.00 0.00 62 1010.0
20260506023840 70 51 0.9 1.7 0.00 0.00 0.00 62 1010.0
20260506023337 70 56 0.0 0.9 0.00 0.00 0.00 61 1010.1
20260506022834 70 47 0.0 0.9 0.00 0.00 0.00 61 1010.0
20260506022332 71 55 0.0 1.7 0.00 0.00 0.00 60 1009.9
20260506021830 71 52 0.9 1.7 0.00 0.00 0.00 59 1009.9
20260506021326 71 80 1.7 2.6 0.00 0.00 0.00 58 1010.0
20260506020823 71 73 0.9 1.7 0.00 0.00 0.00 57 1010.2
20260506020321 71 59 0.0 1.7 0.00 0.00 0.00 55 1010.1
20260506015818 71 64 0.9 1.7 0.00 0.00 0.00 54 1009.9
20260506015316 71 48 0.9 1.7 0.00 0.00 0.00 54 1010.3
20260506014812 71 51 0.0 1.7 0.00 0.00 0.00 54 1010.1
20260506014309 70 52 0.0 0.0 0.00 0.00 0.00 57 1010.2
20260506013806 71 52 0.0 0.0 0.00 0.00 0.00 58 1009.8
20260506013303 71 52 0.0 0.0 0.00 0.00 0.00 52 1009.8
20260506012759 71 52 0.0 0.0 0.00 0.00 0.00 51 1009.7
20260506012256 71 52 0.0 0.0 0.00 0.00 0.00 50 1009.8
20260506011754 72 52 0.0 0.0 0.00 0.00 0.00 50 1009.4
20260506011250 72 52 0.0 0.0 0.00 0.00 0.00 49 1009.6
20260506010748 72 52 0.0 0.0 0.00 0.00 0.00 48 1009.5
20260506010245 73 52 0.0 0.0 0.00 0.00 0.00 48 1009.6
20260506005743 73 52 0.0 0.0 0.00 0.00 0.00 48 1009.3
20260506005239 73 52 0.0 0.0 0.00 0.00 0.00 48 1009.2
20260506004735 74 52 0.0 0.0 0.00 0.00 0.00 47 1009.4
20260506004233 74 52 0.0 0.0 0.00 0.00 0.00 46 1009.4
20260506003728 74 52 0.0 0.0 0.00 0.00 0.00 46 1009.3
20260506003225 75 52 0.0 0.0 0.00 0.00 0.00 45 1008.9
20260506002721 75 53 0.0 0.0 0.00 0.00 0.00 45 1009.2
20260506002218 75 52 0.0 0.0 0.00 0.00 0.00 44 1008.9
20260506001714 76 52 0.0 0.0 0.00 0.00 0.00 44 1009.0
20260506001211 76 52 0.0 0.0 0.00 0.00 0.00 43 1008.8
20260506000708 77 53 0.0 0.0 0.00 0.00 0.00 42 1008.8
20260506000206 77 53 0.0 0.0 0.00 0.00 0.00 41 1008.5
20260505235703 78 53 0.0 0.0 0.00 0.00 0.00 41 1008.7
20260505235201 78 51 0.0 0.9 0.00 0.00 0.00 40 1008.7
20260505234657 79 46 0.0 0.9 0.00 0.00 0.00 40 1008.8
20260505234154 79 21 0.9 1.7 0.00 0.00 0.00 40 1008.7
20260505233651 79 97 1.7 1.7 0.00 0.00 0.00 39 1008.8
20260505233149 79 335 2.6 4.3 0.00 0.00 0.00 38 1009.0
20260505232646 80 65 0.9 2.6 0.00 0.00 0.00 38 1008.8
20260505232144 80 72 0.9 2.6 0.00 0.00 0.00 38 1008.8
20260505231640 80 307 2.6 2.6 0.00 0.00 0.00 38 1008.7
20260505231139 80 287 2.6 2.6 0.00 0.00 0.00 38 1008.8
20260505230637 80 301 2.6 4.3 0.00 0.00 0.00 37 1009.1
20260505230132 80 25 1.7 4.3 0.00 0.00 0.00 38 1008.9
20260505225629 80 144 1.7 5.2 0.00 0.00 0.00 37 1008.8
20260505225125 80 345 2.6 2.6 0.00 0.00 0.00 38 1009.0
20260505224622 80 259 3.5 6.1 0.00 0.00 0.00 37 1009.1
20260505224120 80 251 3.5 5.2 0.00 0.00 0.00 37 1009.3
20260505223617 80 313 2.6 7.0 0.00 0.00 0.00 38 1008.9
20260505223113 81 296 5.2 6.1 0.00 0.00 0.00 37 1009.0
20260505222609 81 311 4.3 7.0 0.00 0.00 0.00 35 1009.3
20260505222106 81 184 2.6 5.2 0.00 0.00 0.00 36 1009.0
20260505221603 81 330 2.6 5.2 0.00 0.00 0.00 37 1009.1
20260505221059 81 121 2.6 4.3 0.00 0.00 0.00 36 1008.9
20260505220556 81 59 0.9 2.6 0.00 0.00 0.00 36 1009.0
20260505220054 80 76 0.9 2.6 0.00 0.00 0.00 37 1008.9
20260505215552 80 187 2.6 2.6 0.00 0.00 0.00 36 1008.9
20260505215049 80 288 3.5 5.2 0.00 0.00 0.00 37 1009.1
20260505214548 81 277 6.1 7.0 0.00 0.00 0.00 36 1009.0
20260505214044 80 104 1.7 2.6 0.00 0.00 0.00 37 1008.9
20260505213542 79 343 1.7 5.2 0.00 0.00 0.00 38 1009.1
20260505213038 80 307 4.3 7.0 0.00 0.00 0.00 37 1009.1
20260505212534 81 97 1.7 2.6 0.00 0.00 0.00 36 1009.3
20260505212032 80 331 2.6 5.2 0.00 0.00 0.00 38 1009.0
20260505211529 80 219 1.7 5.2 0.00 0.00 0.00 38 1009.4
20260505211025 79 298 4.3 6.1 0.00 0.00 0.00 40 1009.2
20260505210522 79 301 4.3 6.1 0.00 0.00 0.00 38 1009.4
20260505210020 79 321 2.6 4.3 0.00 0.00 0.00 39 1009.5
20260505205518 79 357 1.7 4.3 0.00 0.00 0.00 40 1009.3
20260505205014 79 327 2.6 4.3 0.00 0.00 0.00 41 1009.4
20260505204512 79 59 0.9 1.7 0.00 0.00 0.00 39 1009.4
20260505204009 79 271 2.6 7.0 0.00 0.00 0.00 41 1009.6
20260505203506 79 319 2.6 4.3 0.00 0.00 0.00 39 1009.7
20260505203002 79 274 5.2 6.1 0.00 0.00 0.00 40 1009.8
20260505202459 79 289 3.5 4.3 0.00 0.00 0.00 39 1009.5
20260505201954 79 330 3.5 6.1 0.00 0.00 0.00 43 1009.6
20260505201452 80 289 2.6 6.1 0.00 0.00 0.00 39 1009.7
20260505200949 81 296 6.1 8.7 0.00 0.00 0.00 39 1009.8
20260505200447 80 46 0.0 2.6 0.00 0.00 0.00 36 1009.8
20260505195942 80 358 1.7 4.3 0.00 0.00 0.00 37 1009.9
20260505195440 82 17 2.6 5.2 0.00 0.00 0.00 36 1010.2
20260505194937 82 309 4.3 5.2 0.00 0.00 0.00 36 1010.0
20260505194434 81 6 0.9 2.6 0.00 0.00 0.00 36 1010.1
20260505193934 79 356 2.6 5.2 0.00 0.00 0.00 38 1010.3
20260505193432 80 331 2.6 5.2 0.00 0.00 0.00 38 1010.3
20260505192930 79 330 1.7 2.6 0.00 0.00 0.00 39 1010.5
20260505192428 80 195 1.7 5.2 0.00 0.00 0.00 38 1010.6
20260505191925 80 272 3.5 4.3 0.00 0.00 0.00 38 1010.5
20260505191424 79 62 1.7 4.3 0.00 0.00 0.00 39 1010.6
20260505190920 79 272 3.5 6.1 0.00 0.00 0.00 39 1010.7
20260505190415 79 274 5.2 6.1 0.00 0.00 0.00 39 1010.5
20260505185911 78 250 6.1 7.0 0.00 0.00 0.00 39 1010.8
20260505185409 79 291 6.1 7.0 0.00 0.00 0.00 39 1010.8
20260505184904 79 243 5.2 6.1 0.00 0.00 0.00 38 1010.7
20260505184401 78 337 2.6 4.3 0.00 0.00 0.00 38 1011.2
20260505183858 80 286 3.5 5.2 0.00 0.00 0.00 38 1011.3
20260505183355 78 292 5.2 6.1 0.00 0.00 0.00 40 1011.5
20260505182852 79 279 10.4 13.0 0.00 0.00 0.00 39 1011.5
20260505182349 78 90 2.6 4.3 0.00 0.00 0.00 39 1011.6
20260505181845 79 48 2.6 5.2 0.00 0.00 0.00 38 1011.9
20260505181343 79 288 3.5 5.2 0.00 0.00 0.00 37 1011.9
20260505180839 78 117 1.7 6.1 0.00 0.00 0.00 37 1011.9
20260505180336 77 296 4.3 5.2 0.00 0.00 0.00 38 1012.0
20260505175832 77 289 3.5 8.7 0.00 0.00 0.00 38 1011.9
20260505175329 79 315 2.6 2.6 0.00 0.00 0.00 40 1011.5
20260505174825 78 209 3.5 8.7 0.00 0.00 0.00 42 1011.9
20260505174323 77 306 4.3 7.0 0.00 0.00 0.00 40 1011.6
20260505173819 77 283 5.2 7.0 0.00 0.00 0.00 41 1011.6
20260505173315 77 231 4.3 5.2 0.00 0.00 0.00 38 1011.7
20260505172813 77 299 2.6 7.0 0.00 0.00 0.00 40 1011.9
20260505172310 77 295 4.3 7.0 0.00 0.00 0.00 42 1011.7
20260505171804 78 61 1.7 4.3 0.00 0.00 0.00 38 1011.8
20260505171301 77 290 3.5 4.3 0.00 0.00 0.00 41 1011.8
20260505170758 76 343 2.6 2.6 0.00 0.00 0.00 42 1011.7
20260505170255 77 282 2.6 6.1 0.00 0.00 0.00 41 1012.1
20260505165755 78 68 0.9 2.6 0.00 0.00 0.00 39 1012.1
20260505165251 78 51 0.0 2.6 0.00 0.00 0.00 41 1011.9
20260505164747 76 91 2.6 4.3 0.00 0.00 0.00 42 1012.2
20260505164245 77 296 5.2 6.1 0.00 0.00 0.00 42 1012.1
20260505163743 76 35 0.9 2.6 0.00 0.00 0.00 43 1012.3
20260505163241 75 30 0.0 2.6 0.00 0.00 0.00 45 1012.3
20260505162738 76 294 5.2 6.1 0.00 0.00 0.00 46 1012.4
20260505162235 76 57 0.9 2.6 0.00 0.00 0.00 45 1012.6
20260505161732 75 343 4.3 4.3 0.00 0.00 0.00 44 1012.5
20260505161230 76 229 4.3 7.0 0.00 0.00 0.00 46 1012.6
20260505160727 75 41 0.9 5.2 0.00 0.00 0.00 48 1012.6
20260505160225 75 306 3.5 4.3 0.00 0.00 0.00 51 1012.5
20260505153203 73 2 0.9 1.7 0.00 0.00 0.00 55 1012.9
20260505152700 73 288 3.5 5.2 0.00 0.00 0.00 55 1013.1
20260505152156 73 17 0.9 2.6 0.00 0.00 0.00 57 1013.1
20260505151651 73 8 0.9 4.3 0.00 0.00 0.00 56 1013.0
20260505151149 72 321 2.6 4.3 0.00 0.00 0.00 58 1012.9
20260505150645 72 289 2.6 5.2 0.00 0.00 0.00 58 1012.9
20260505150142 72 283 3.5 5.2 0.00 0.00 0.00 59 1013.2